"TOA5","AWS1","CR1000","7964","CR1000.Std.14","CPU:AWS1_114.CR1","64363","TBL110"
"TIMESTAMP","RECORD","Wind_spd_WVc(1)","Wind_spd_WVc(2)","Air_Temp_Avg","Humidity_Avg","SW_upper_Wm2_Avg","Rain_Tot","Press_Avg","Issui_Tot","Depth_cm","SR50A_Raw","Quality","Ground_Temp_Avg(1)","Ground_Temp_Avg(2)","SW_lower_Wm2_Avg","Albedo_Avg","SWC_per(1)","SWC_per(2)","Period(1)","Period(2)"
"TS","RN","","","","","","","","","","","","","","","","","","",""
"","","WVc","WVc","Avg","Avg","Avg","Tot","Avg","Tot","Smp","Smp","Smp","Avg","Avg","Avg","Avg","Smp","Smp","Smp","Smp"
"2018-06-16 00:00:00",345229,0.158,352.1,10.68,100,0,0,861.5891,0,19.89,2.925,244,16.48,16.21,0.2046846,0,49.73,56.18,33.23,34.79
"2018-06-16 00:10:00",345230,0.02,353.2,10.58,100,0,0,861.4628,0,14.58,2.977,210,16.47,16.21,0.3866269,0,49.79,56.18,33.24,34.79
"2018-06-16 00:20:00",345231,0.315,233.2,10.63,100,0,0,861.3407,0,18.75,2.936,273,16.46,16.22,0.4472925,0,49.79,56.18,33.24,34.79
"2018-06-16 00:30:00",345232,0.201,5.327,10.39,100,0,0,861.4396,0,-13.56,3.255,170,16.44,16.2,0.1402561,0,49.79,56.18,33.24,34.79
"2018-06-16 00:40:00",345233,0.036,338.3,10.35,100,0,0,861.3407,0,-17.15,3.29,170,16.41,16.17,0.4321512,0,49.79,56.23,33.24,34.8
"2018-06-16 00:50:00",345234,0.022,14.62,10.35,100,0,0,861.3407,0,23.73,2.888,304,16.42,16.16,0.4359449,0,49.84,56.23,33.26,34.8
"2018-06-16 01:00:00",345235,0.016,338,10.24,100,0,0,861.3407,0,29.52,2.832,268,16.43,16.18,0.3563384,0,49.79,56.23,33.24,34.8
"2018-06-16 01:10:00",345236,0.16,358,10.19,100,0,0,861.5386,0,29.86,2.83,220,16.43,16.19,0.3790836,0,49.84,56.23,33.26,34.8
"2018-06-16 01:20:00",345237,0.031,358.3,10.1,100,0,0,861.387,0,20.5,2.921,233,16.38,16.2,0.3525478,0,49.84,56.29,33.26,34.82
"2018-06-16 01:30:00",345238,0.119,357.8,10.09,100,0,0,861.368,0,-11.38,3.235,182,16.36,16.2,0.4132012,0,49.84,56.23,33.26,34.8
"2018-06-16 01:40:00",345239,0.089,325.8,9.91,100,0,0,861.3575,0,-9.85,3.221,184,16.33,16.2,0.2653585,0,49.84,56.23,33.26,34.8
"2018-06-16 01:50:00",345240,0.094,13.9,9.7,100,0,0,861.3933,0,28.61,2.844,287,16.36,16.21,0.2615677,0,49.9,56.29,33.27,34.82
"2018-06-16 02:00:00",345241,0.085,358.6,9.58,100,0,0,861.3575,0,32.12,2.81,361,16.37,16.22,0.2653585,0,49.9,56.29,33.27,34.82
"2018-06-16 02:10:00",345242,0,0,9.81,100,0.1690599,0,861.3407,0,27.13,2.857,277,16.32,16.18,0.5951613,0.948,49.9,56.35,33.27,34.83
"2018-06-16 02:20:00",345243,0,0,10.01,100,0.01179488,0,861.3407,0,29.68,2.832,259,16.31,16.16,0.4549004,0.096,49.9,56.29,33.27,34.82
"2018-06-16 02:30:00",345244,0.123,269.9,10.07,100,0.003931627,0,861.3407,0,-11.76,3.239,182,16.31,16.15,0.4738545,0.064,49.9,56.35,33.27,34.83
"2018-06-16 02:40:00",345245,0.286,8.86,9.44,100,0,0,861.3407,0,20.64,2.925,247,16.3,16.14,0.05307171,0,49.9,56.35,33.27,34.83
"2018-06-16 02:50:00",345246,0.265,0.937,9.01,100,0,0,861.3975,0,18.27,2.949,231,16.26,16.13,0.01137251,0,49.9,56.35,33.27,34.83
"2018-06-16 03:00:00",345247,0.306,308.8,9.03,100,0,0,861.5154,0,25.97,2.873,241,16.25,16.11,0.394247,0,49.9,56.35,33.27,34.83
"2018-06-16 03:10:00",345248,0.069,309.1,9.15,100,0,0,861.6249,0,-23.25,3.357,188,16.24,16.11,0.4624816,0,49.9,56.35,33.27,34.83
"2018-06-16 03:20:00",345249,0.197,3.917,8.97,100,0,0,861.7029,0,20.07,2.932,254,16.18,16.1,0.2918908,0,49.9,56.41,33.27,34.84
"2018-06-16 03:30:00",345250,0.127,310.8,8.88,100,0,0,861.8272,0,-14.1,3.268,174,16.16,16.12,0.4131978,0,49.95,56.41,33.28,34.84
"2018-06-16 03:40:00",345251,0.26,7.14,8.82,100,0,0,861.8187,0,27.78,2.857,292,16.19,16.14,0.4548989,0,49.95,56.41,33.28,34.84
"2018-06-16 03:50:00",345252,0.001,31.62,8.75,100,0,0,861.8061,0,19.02,2.943,218,16.18,16.14,0.4548999,0,49.9,56.41,33.27,34.84
"2018-06-16 04:00:00",345253,0.088,20,8.75,100,0,0,861.8524,0,29.63,2.839,390,16.15,16.08,0.4207828,0,49.95,56.46,33.28,34.86
"2018-06-16 04:10:00",345254,0.049,359.6,8.65,100,0,0,861.8567,0,-22.38,3.351,185,16.12,16.08,0.4511095,0,49.95,56.46,33.28,34.86
"2018-06-16 04:20:00",345255,0.05,0.894,8.72,100,0.06290603,0,861.862,0,19.25,2.941,270,16.07,16.04,0.4928087,0.458,49.95,56.46,33.28,34.86
"2018-06-16 04:30:00",345256,0.12,12.27,8.63,100,0.4324789,0,861.8633,0,18.38,2.95,239,16.11,16.02,0.4549004,0.737,49.95,56.46,33.28,34.86
"2018-06-16 04:40:00",345257,0.195,8.76,8.56,100,1.83607,0,861.8665,0,24.39,2.891,368,16.1,16.02,0.4890179,0.284,49.95,56.46,33.28,34.86
"2018-06-16 04:50:00",345258,0.016,3.621,8.54,100,4.305131,0,862.0286,0,16.09,2.973,249,16.02,16.02,0.8908466,0.211,49.95,56.52,33.28,34.87
"2018-06-16 05:00:00",345259,0.127,14.86,8.43,100,6.286672,0,862.1653,0,17.19,2.964,244,16,16.02,1.125878,0.18,49.95,56.52,33.28,34.87
"2018-06-16 05:10:00",345260,0.332,12.02,8.21,100,10.76086,0,862.3027,0,16.45,2.971,260,16.02,16.02,1.739994,0.161,49.95,56.52,33.28,34.87
"2018-06-16 05:20:00",345261,0.114,7.523,8.22,100,17.63334,0,862.3107,0,-19.98,3.33,184,16.02,16.04,2.937898,0.167,49.95,56.52,33.28,34.87
"2018-06-16 05:30:00",345262,0.21,9.16,8.19,100,24.54515,0,862.3916,0,17.88,2.957,238,16.02,16.06,3.836326,0.157,49.95,56.52,33.28,34.87
"2018-06-16 05:40:00",345263,0.268,6.716,8.25,100,27.40737,0,862.408,0,-12.73,3.258,187,15.95,16.06,4.211619,0.154,50.01,56.52,33.3,34.87
"2018-06-16 05:50:00",345264,0.03,23.78,8.19,100,37.77114,0,862.5674,0,21.95,2.918,270,15.9,16.06,5.458804,0.145,49.95,56.58,33.28,34.88
"2018-06-16 06:00:00",345265,0.264,10.56,8.07,100,44.48243,0,862.6652,0,-17.27,3.304,185,15.9,16.01,6.053966,0.136,49.95,56.58,33.28,34.88
"2018-06-16 06:10:00",345266,0.267,15.37,8.15,100,55.54995,0,862.4708,0,-15.62,3.287,178,15.92,15.98,7.786378,0.14,49.95,56.58,33.28,34.88
"2018-06-16 06:20:00",345267,0.225,24.51,8.06,100,64.22312,0,862.4531,0,-13.11,3.263,175,15.93,15.93,8.980491,0.14,49.95,56.58,33.28,34.88
"2018-06-16 06:30:00",345268,0.193,11.18,8.14,100,81.07014,0,862.5206,0,23.63,2.901,262,15.89,15.9,11.48623,0.142,49.95,56.58,33.28,34.88
"2018-06-16 06:40:00",345269,0.182,354.1,8.26,100,92.56622,0,862.6231,0,21.86,2.918,251,15.88,15.89,12.88126,0.139,50.01,56.58,33.3,34.88
"2018-06-16 06:50:00",345270,0.501,11.6,8.22,100,99.42298,0,862.5911,0,24.37,2.893,234,15.82,15.92,14.03368,0.141,49.95,56.58,33.28,34.88
"2018-06-16 07:00:00",345271,0.327,29.2,8.34,100,95.47562,0,862.6403,0,24.61,2.89,249,15.84,15.93,13.38544,0.14,50.01,56.58,33.3,34.88
"2018-06-16 07:10:00",345272,0.211,10.79,8.28,100,95.06673,0,862.6393,0,22.21,2.915,253,15.85,15.93,13.37407,0.141,50.01,56.58,33.3,34.88
"2018-06-16 07:20:00",345273,0.318,4.739,8.17,100,102.1555,0,862.6711,0,23.75,2.9,269,15.85,15.94,14.37485,0.141,50.01,56.64,33.3,34.9
"2018-06-16 07:30:00",345274,0.189,335.3,8.27,100,110.9309,0,862.7746,0,-12.6,3.257,185,15.84,15.95,15.75851,0.142,50.01,56.64,33.3,34.9
"2018-06-16 07:40:00",345275,0.098,15.97,8.35,100,127.9312,0,862.8614,0,17.14,2.964,262,15.81,15.97,18.14294,0.142,50.01,56.58,33.3,34.88
"2018-06-16 07:50:00",345276,0.468,14.62,8.21,100,148.529,0,862.8759,0,-16.05,3.292,174,15.78,15.97,21.06568,0.142,50.01,56.64,33.3,34.9
"2018-06-16 08:00:00",345277,0.44,2.524,8.13,100,170.4635,0,862.8607,0,-17.47,3.305,173,15.73,15.95,24.30305,0.143,50.01,56.64,33.3,34.9
"2018-06-16 08:10:00",345278,0.435,11.46,8.37,100,196.1253,0,862.8578,0,-17.02,3.3,170,15.72,15.92,28.09389,0.143,50.01,56.64,33.3,34.9
"2018-06-16 08:20:00",345279,0.407,19.69,8.65,100,223.108,0,862.7762,0,23.83,2.895,304,15.72,15.9,31.94917,0.143,50.06,56.64,33.31,34.9
"2018-06-16 08:30:00",345280,0.247,8.68,8.82,100,252.4851,0,862.7079,0,22.71,2.906,263,15.72,15.9,35.98641,0.143,50.01,56.64,33.3,34.9
"2018-06-16 08:40:00",345281,0.221,17.32,9.04,100,261.6812,0,862.653,0,24.56,2.886,268,15.72,15.9,37.47621,0.143,50.01,56.64,33.3,34.9
"2018-06-16 08:50:00",345282,0.272,36.7,9.4,100,278.1862,0,862.8425,0,23.51,2.895,290,15.71,15.9,40.01228,0.144,50.01,56.64,33.3,34.9
"2018-06-16 09:00:00",345283,0.429,18.21,9.33,100,311.4949,0,862.8572,0,23.61,2.894,277,15.7,15.88,45.70612,0.147,50.01,56.7,33.3,34.91
"2018-06-16 09:10:00",345284,0.519,15.32,9.3,100,349.1501,0,862.8572,0,-16.51,3.289,188,15.7,15.89,52.60135,0.151,50.01,56.7,33.3,34.91
"2018-06-16 09:20:00",345285,0.321,17.15,9.52,100,387.1078,0,862.8593,0,-13.14,3.256,186,15.74,15.85,57.93179,0.15,50.06,56.7,33.31,34.91
"2018-06-16 09:30:00",345286,0.211,348,9.61,100,388.5616,0,862.8719,0,-13.54,3.257,190,15.71,15.82,58.44625,0.15,50.01,56.7,33.3,34.91
"2018-06-16 09:40:00",345287,0.19,37.25,10.19,100,452.9612,0,863.0109,0,26.96,2.858,280,15.74,15.75,67.3938,0.149,50.06,56.7,33.31,34.91
"2018-06-16 09:50:00",345288,0.425,23.1,10.23,100,553.3989,0,863.1015,0,-11.48,3.233,178,15.68,15.73,84.56392,0.152,50.06,56.7,33.31,34.91
"2018-06-16 10:00:00",345289,0.281,36.42,10.4,100,543.8426,0,863.11,0,25.95,2.866,279,15.71,15.72,83.4509,0.153,50.11,56.7,33.33,34.91
"2018-06-16 10:10:00",345290,0.287,22.78,11.02,100,733.6664,0,863.11,0,19.72,2.924,245,15.71,15.73,113.4027,0.154,50.06,56.7,33.31,34.91
"2018-06-16 10:20:00",345291,0.509,351.5,11.25,100,1097.636,0,863.11,0,25.25,2.865,308,15.73,15.75,174.9369,0.159,50.01,56.75,33.3,34.93
"2018-06-16 10:30:00",345292,0.439,17.04,12.03,100,1080.857,0,863.11,0,-20.86,3.313,192,15.78,15.73,172.0984,0.158,50.01,56.75,33.3,34.93
"2018-06-16 10:40:00",345293,0.523,19.81,12.31,100,956.0816,0,863.0867,0,-25.31,3.358,213,15.73,15.71,150.1039,0.152,50.06,56.75,33.31,34.93
"2018-06-16 10:50:00",345294,0.44,19.41,12.66,97.8,1129.407,0,863.0463,0,-12.64,3.231,184,15.75,15.71,182.4987,0.161,50.06,56.75,33.31,34.93
"2018-06-16 11:00:00",345295,0.395,333.7,12.83,87.6,1166.61,0,863.0272,0,29.35,2.821,288,15.83,15.69,189.4635,0.162,50.01,56.75,33.3,34.93
"2018-06-16 11:10:00",345296,0.609,345.4,12.88,82.3,870.5141,0,863.0226,0,19.92,2.912,280,15.78,15.68,136.1586,0.151,50.01,56.81,33.3,34.94
"2018-06-16 11:20:00",345297,0.284,314,13.45,78.74,1130.932,0,863.0377,0,24.39,2.864,407,15.9,15.68,184.5252,0.163,50.01,56.75,33.3,34.93
"2018-06-16 11:30:00",345298,0.207,254.9,14.44,76.31,1131.255,0,863.0603,0,18.66,2.915,266,15.95,15.69,183.6836,0.162,50.01,56.81,33.3,34.94
"2018-06-16 11:40:00",345299,0.312,324.1,14.54,72.27,1119.488,0,863.0468,0,-12.98,3.227,182,16.02,15.69,183.7511,0.164,50.01,56.81,33.3,34.94
"2018-06-16 11:50:00",345300,0.265,161.5,14.79,69.23,1108.35,0,863.037,0,-15.37,3.244,192,16.06,15.67,183.8855,0.166,50.01,56.81,33.3,34.94
"2018-06-16 12:00:00",345301,0.257,190.9,15.46,63.67,1083.15,0,863.0301,0,28.85,2.813,266,16.13,15.63,184.1991,0.17,49.95,56.81,33.28,34.94
"2018-06-16 12:10:00",345302,0.241,100,15.52,62.3,1076.108,0,862.9919,0,-9.55,3.183,181,16.24,15.58,181.7275,0.169,50.01,56.75,33.3,34.93
"2018-06-16 12:20:00",345303,0.39,148.8,16.18,57.96,1064.308,0,862.9106,0,318,0,0,16.34,15.55,180.4516,0.17,49.95,56.81,33.28,34.94
"2018-06-16 12:30:00",345304,0.393,216.6,16.21,54.09,1066.315,0,862.887,0,30.29,2.795,260,16.41,15.54,181.8719,0.171,49.95,56.75,33.28,34.93
"2018-06-16 12:40:00",345305,0.453,183.7,16.25,52.19,1047.52,0,862.8038,0,18.45,2.91,327,16.51,15.53,181.6488,0.173,49.95,56.81,33.28,34.94
"2018-06-16 12:50:00",345306,0.325,149.3,16.43,38.48,1047.948,0,862.7949,0,24.35,2.851,262,16.62,15.53,179.5336,0.171,49.9,56.75,33.27,34.93
"2018-06-16 13:00:00",345307,0.469,218.6,16.53,41.78,1045.892,0,862.7848,0,28.43,2.813,300,16.71,15.53,177.4803,0.17,49.95,56.75,33.28,34.93
"2018-06-16 13:10:00",345308,0.389,121.6,16.95,44.78,1049.464,0,862.5798,0,-10.53,3.186,186,16.78,15.53,174.9395,0.167,49.95,56.81,33.28,34.94
"2018-06-16 13:20:00",345309,0.557,146.8,17.29,43.19,1043.715,0,862.5444,0,15.86,2.929,261,16.92,15.53,172.5435,0.165,49.9,56.75,33.27,34.93
"2018-06-16 13:30:00",345310,0.474,320.8,17.08,42.37,1040.547,0,862.5037,0,-16.91,3.251,192,17.01,15.53,170.751,0.164,49.84,56.81,33.26,34.94
"2018-06-16 13:40:00",345311,0.811,351.9,17.1,44.7,1021.299,0,862.4648,0,25.35,2.837,347,17.09,15.52,170.2689,0.167,49.84,56.75,33.26,34.93
"2018-06-16 13:50:00",345312,0.489,302.6,17.3,46.35,973.0634,0,862.3412,0,24.96,2.842,266,17.2,15.52,159.8927,0.162,49.84,56.75,33.26,34.93
"2018-06-16 14:00:00",345313,0.581,336.2,17.13,47.21,917.1046,0,862.3057,0,28.76,2.805,314,17.29,15.54,152.0825,0.161,49.84,56.75,33.26,34.93
"2018-06-16 14:10:00",345314,0.496,274.7,17.04,48.59,813.938,0,862.2972,0,-12.16,3.202,181,17.4,15.55,133.2996,0.15,49.79,56.75,33.24,34.93
"2018-06-16 14:20:00",345315,0.509,309.3,17.44,48.09,979.1573,0,862.3121,0,21.69,2.872,288,17.45,15.6,161.2831,0.161,49.79,56.75,33.24,34.93
"2018-06-16 14:30:00",345316,0.53,3,16.76,50.57,236.214,0,862.3157,0,-9.96,3.185,170,17.54,15.6,28.43198,0.116,49.79,56.7,33.24,34.91
"2018-06-16 14:40:00",345317,0.294,263.1,17.06,51.55,947.3066,0,862.3122,0,29.76,2.793,362,17.64,15.61,154.5536,0.162,49.79,56.7,33.24,34.91
"2018-06-16 14:50:00",345318,0.454,283.4,17.92,51.15,643.6539,0,862.2971,0,24.23,2.847,319,17.72,15.59,90.49356,0.135,49.79,56.75,33.24,34.93
"2018-06-16 15:00:00",345319,0.487,270.2,17.16,54.27,488.3955,0,862.2936,0,-8.85,3.173,178,17.73,15.59,62.59549,0.123,49.73,56.75,33.23,34.93
"2018-06-16 15:10:00",345320,0.285,276.5,16.38,58.44,334.2548,0,862.3522,0,-17.17,3.256,198,17.85,15.62,38.33498,0.118,49.73,56.75,33.23,34.93
"2018-06-16 15:20:00",345321,0.256,352.8,15.97,63.87,145.1689,0,862.5714,0,16.98,2.928,259,17.92,15.63,17.89421,0.123,49.73,56.75,33.23,34.93
"2018-06-16 15:30:00",345322,0.222,29.67,15.5,65.09,120.5379,0,862.7285,0,14.95,2.949,241,17.97,15.64,15.76828,0.131,49.68,56.75,33.22,34.93
"2018-06-16 15:40:00",345323,0.245,237.1,15.17,69.94,183.9805,0,862.8494,0,-14.79,3.238,178,18.05,15.65,28.41777,0.152,49.73,56.75,33.23,34.93
"2018-06-16 15:50:00",345324,0.163,253.1,15.46,70.17,200.2558,0,862.8531,0,30.38,2.798,297,18.08,15.63,31.8473,0.159,49.68,56.75,33.22,34.93
"2018-06-16 16:00:00",345325,0.476,252.4,15.5,70.6,256.0501,0,862.8314,0,18.47,2.913,237,18.16,15.7,44.03447,0.173,49.68,56.75,33.22,34.93
"2018-06-16 16:10:00",345326,0.239,244.9,15.53,71.72,202.5393,0,862.8571,0,-16.85,3.257,186,18.13,15.72,31.81699,0.158,49.62,56.75,33.2,34.93
"2018-06-16 16:20:00",345327,0.365,205.7,15.61,72.9,220.6658,0,862.9919,0,-16.7,3.256,194,18.18,15.71,35.29578,0.159,49.62,56.75,33.2,34.93
"2018-06-16 16:30:00",345328,0.159,255,15.54,73.6,222.4894,0,863.1456,0,-9.09,3.183,179,18.22,15.75,35.88695,0.16,49.68,56.75,33.22,34.93
"2018-06-16 16:40:00",345329,0.337,209.6,14.94,75.47,164.9658,0,863.2299,0,-9.23,3.187,196,18.2,15.78,26.32215,0.159,49.62,56.7,33.2,34.91
"2018-06-16 16:50:00",345330,0.469,145.8,14.59,76.4,181.8228,0,863.3142,0,17.11,2.932,286,18.2,15.77,29.29315,0.161,49.62,56.75,33.2,34.93
"2018-06-16 17:00:00",345331,0.159,205.3,14.56,77.57,157.172,0,863.3626,0,-13.27,3.228,173,18.2,15.8,24.91623,0.158,49.62,56.7,33.2,34.91
"2018-06-16 17:10:00",345332,0.155,250.8,14.32,76.97,140.7277,0,863.39,0,16.12,2.943,251,18.22,15.8,20.42941,0.144,49.57,56.7,33.19,34.91
"2018-06-16 17:20:00",345333,0.181,336.7,13.79,78.95,88.19556,0,863.5859,0,16.93,2.938,281,18.22,15.82,11.53536,0.125,49.57,56.7,33.19,34.91
"2018-06-16 17:30:00",345334,0.138,245,13.66,80.4,129.4046,0,863.6153,0,16.44,2.943,354,18.26,15.82,19.84962,0.153,49.57,56.7,33.19,34.91
"2018-06-16 17:40:00",345335,0.145,300.7,13.52,80.7,99.67592,0,863.6848,0,-12.54,3.227,183,18.27,15.88,14.69963,0.147,49.57,56.7,33.19,34.91
"2018-06-16 17:50:00",345336,0.124,250.1,13.2,81.4,100.8668,0,863.8576,0,-24.34,3.343,214,18.24,15.95,15.67354,0.153,49.57,56.7,33.19,34.91
"2018-06-16 18:00:00",345337,0.152,175.8,12.98,83,69.849,0,863.8682,0,30.87,2.806,332,18.24,15.97,10.43261,0.148,49.57,56.7,33.19,34.91
"2018-06-16 18:10:00",345338,0.086,211.5,12.78,84.1,70.13197,0,863.9313,0,18.12,2.931,360,18.25,15.97,10.72061,0.153,49.57,56.7,33.19,34.91
"2018-06-16 18:20:00",345339,0.117,217.9,12.65,84.4,45.64631,0,864.1124,0,-13.5,3.242,190,18.29,15.97,6.161794,0.125,49.57,56.7,33.19,34.91
"2018-06-16 18:30:00",345340,0.049,198.9,12.37,86.2,21.45149,0,864.1735,0,4.185,3.07,227,18.32,15.99,2.072879,0.095,49.51,56.7,33.18,34.91
"2018-06-16 18:40:00",345341,0.049,18.36,12.01,87.2,23.59349,0,864.3588,0,-12.99,3.241,183,18.3,16.06,3.338586,0.137,49.51,56.7,33.18,34.91
"2018-06-16 18:50:00",345342,0.024,14.87,11.68,89.2,17.28932,0,864.3737,0,27.23,2.848,254,18.25,16.06,2.47457,0.133,49.57,56.7,33.19,34.91
"2018-06-16 19:00:00",345343,0.154,102.4,11.29,91.7,4.763504,0,864.3737,0,15.59,2.965,290,18.29,16.05,0.2084248,0.029,49.57,56.7,33.19,34.91
"2018-06-16 19:10:00",345344,0.023,4.459,10.94,94.3,0.06288454,0,864.3737,0,-14.32,3.259,173,18.23,16.09,0,0,49.57,56.64,33.19,34.9
"2018-06-16 19:20:00",345345,0.02,349.7,10.66,96.6,0,0,864.54,0,17.37,2.95,341,18.26,16.11,0,0,49.51,56.7,33.18,34.91
"2018-06-16 19:30:00",345346,0.002,344.3,10.5,99.6,0,0,864.6221,0,-17.25,3.291,171,18.3,16.11,0,0,49.51,56.64,33.18,34.9
"2018-06-16 19:40:00",345347,0.02,8.87,10.37,100,0,0,864.6622,0,15.59,2.968,265,18.22,16.15,0.0189526,0,49.51,56.64,33.18,34.9
"2018-06-16 19:50:00",345348,0.201,312.4,10.33,100,0,0,864.877,0,15.68,2.968,242,18.23,16.22,0.3259932,0,49.51,56.64,33.18,34.9
"2018-06-16 20:00:00",345349,0.103,108,10.28,100,0,0,864.8791,0,16.29,2.961,255,18.24,16.24,0.3790726,0,49.51,56.64,33.18,34.9
"2018-06-16 20:10:00",345350,0.012,131.7,10.41,100,0,0,865.0266,0,16.19,2.962,246,18.19,16.31,0.4548954,0,49.51,56.64,33.18,34.9
"2018-06-16 20:20:00",345351,0.082,179.3,10.55,100,0,0,865.1487,0,16.82,2.954,258,18.19,16.31,0.6823484,0,49.51,56.64,33.18,34.9
"2018-06-16 20:30:00",345352,0.03,95.2,11.01,99.3,0,0,865.3214,0,-13.82,3.253,170,18.17,16.29,1.125877,0,49.51,56.64,33.18,34.9
"2018-06-16 20:40:00",345353,0.083,81,11.16,97.5,0,0,865.3846,0,16.18,2.958,318,18.09,16.32,0.9742448,0,49.51,56.64,33.18,34.9
"2018-06-16 20:50:00",345354,0.117,66.59,11.18,95.9,0,0,865.4014,0,16.9,2.951,241,18.06,16.36,0.7847031,0,49.51,56.64,33.18,34.9
"2018-06-16 21:00:00",345355,0.009,38.71,11.28,94.6,0,0,865.631,0,17.83,2.941,259,18.06,16.37,0.8756832,0,49.51,56.64,33.18,34.9
"2018-06-16 21:10:00",345356,0.065,30.46,11.4,93.2,0,0,865.6374,0,-14.02,3.253,170,18.02,16.35,0.8756832,0,49.51,56.64,33.18,34.9
"2018-06-16 21:20:00",345357,0.041,131.1,11.39,92.7,0,0,865.7005,0,15.97,2.959,247,18.03,16.33,0.5875796,0,49.51,56.64,33.18,34.9
"2018-06-16 21:30:00",345358,0.152,50.7,11.21,93.5,0,0,865.7258,0,17.15,2.949,280,17.95,16.32,0.3639166,0,49.51,56.64,33.18,34.9
"2018-06-16 21:40:00",345359,0.166,33.06,11.27,93.2,0,0,865.7343,0,16.07,2.958,257,17.91,16.3,0.6823347,0,49.51,56.64,33.18,34.9
"2018-06-16 21:50:00",345360,0.113,29.29,11.52,91.3,0,0,865.8796,0,17.17,2.947,238,17.89,16.36,0.8188105,0,49.51,56.58,33.18,34.88
"2018-06-16 22:00:00",345361,0.04,95.4,11.43,91.1,0,0,865.8901,0,16.24,2.957,248,17.83,16.4,0.2729388,0,49.51,56.58,33.18,34.88
"2018-06-16 22:10:00",345362,0.001,188.8,11.21,94.7,0,0,865.8901,0,16.49,2.955,249,17.8,16.43,0.2122867,0,49.51,56.58,33.18,34.88
"2018-06-16 22:20:00",345363,0,0,11.23,95.7,0,0,865.888,0,-17.08,3.284,184,17.8,16.46,0.4549003,0,49.51,56.58,33.18,34.88
"2018-06-16 22:30:00",345364,0.17,87,11.2,96.4,0,0,865.8859,0,27.22,2.85,282,17.74,16.46,0.4207829,0,49.51,56.58,33.18,34.88
"2018-06-16 22:40:00",345365,0.001,86.5,11.3,95.7,0,0,865.888,0,-14.68,3.26,170,17.71,16.45,0.4549004,0,49.51,56.58,33.18,34.88
"2018-06-16 22:50:00",345366,0,0,11.25,97,0,0,865.888,0,20,2.921,288,17.68,16.43,0.3146394,0,49.46,56.58,33.16,34.88
"2018-06-16 23:00:00",345367,0.007,26.84,11.07,99.9,0,0,865.8901,0,19.44,2.927,258,17.68,16.41,0.2388227,0,49.51,56.58,33.18,34.88
"2018-06-16 23:10:00",345368,0.001,15.88,11.03,100,0,0,865.8901,0,18.26,2.939,259,17.68,16.41,0.05307171,0,49.51,56.58,33.18,34.88
"2018-06-16 23:20:00",345369,0.016,5.282,10.98,100,0,0,865.8901,0,16.17,2.959,239,17.59,16.41,0.1250976,0,49.51,56.58,33.18,34.88
"2018-06-16 23:30:00",345370,0.043,81.4,10.97,100,0,0,865.8164,0,-12.06,3.237,180,17.58,16.41,0.03411753,0,49.51,56.58,33.18,34.88
"2018-06-16 23:40:00",345371,0.097,67.52,10.75,100,0,0,865.6627,0,16.11,2.961,239,17.55,16.41,0,0,49.51,56.58,33.18,34.88
"2018-06-16 23:50:00",345372,0,0,10.77,100,0,0,865.6352,0,-10.73,3.225,185,17.51,16.41,0.02653586,0,49.51,56.58,33.18,34.88
